Greenville, WI

11:23 AM CST on February 12, 2016 (GMT -0600)
Outagamie County Regional

Weather History for KATW - November, 2012

Change the Weather History Date:

Wednesday, November 21, 2012

  Actual Average Record
Temperature  
Mean Temperature 44 °F -  
Max Temperature 55 °F 37 °F 61 °F (1990)
Min Temperature 32 °F 24 °F 5 °F (2014)
Degree Days  
Heating Degree Days 22    
Moisture  
Dew Point 38 °F    
Average Humidity 88    
Maximum Humidity 100    
Minimum Humidity 54    
Precipitation  
Precipitation 0.00 in - - ()
Sea Level Pressure  
Sea Level Pressure 30.06 in    
Wind  
Wind Speed 7 mph (SSW)    
Max Wind Speed 18 mph    
Max Gust Speed 23 mph    
Visibility 6 miles    
Events Fog    
Averages and records for this station are not official NWS values.
T = Trace of Precipitation, MM = Missing Value Source: NWS Daily Summary

Daily Weather History Graph

Daily Weather History Graph

Search for Another Location

Airport or City:

Trip Planner

Search our weather history database for the weather conditions in past years. The results will help you decide how hot, cold, wet, or windy it might be!

Date:

Astronomy

Nov. 21, 2012 Rise Set
Actual Time 6:58 AM CST 4:21 PM CST
Civil Twilight 6:26 AM CST 4:53 PM CST
Nautical Twilight 5:50 AM CST 5:29 PM CST
Astronomical Twilight 5:16 AM CST 6:03 PM CST
Moon 12:50 PM CST (11/21) 12:03 AM CST (11/21)
Length of Visible Light 10h 27m
Length of Day
9h 23m
First Quarter, 62% of the Moon is Illuminated
Nov 21
First Quarter
Nov 28
Full
Dec 6
Last Quarter
Dec 13
New
Dec 19
First Quarter

Hourly Weather History & Observations

Time (CST) Temp. Windchill Dew Point Humidity Pressure Visibility Wind Dir Wind Speed Gust Speed Precip Events Conditions
12:15 AM 37.4 °F 33.8 °F 35.6 °F 93% 30.14 in 5.0 mi West 4.6 mph - N/A   Clear
12:35 AM 35.6 °F - 35.6 °F 100% 30.14 in 4.0 mi Calm Calm - N/A   Clear
12:55 AM 37.4 °F - 37.4 °F 100% 30.14 in 5.0 mi Calm Calm - N/A   Clear
1:15 AM 37.4 °F 34.9 °F 35.6 °F 93% 30.14 in 5.0 mi SW 3.5 mph - N/A   Clear
1:35 AM 37.4 °F - 35.6 °F 93% 30.14 in 4.0 mi Calm Calm - N/A   Clear
1:55 AM 35.6 °F 32.8 °F 35.6 °F 100% 30.14 in 1.8 mi SE 3.5 mph - N/A   Mist
2:15 AM 35.6 °F 30.7 °F 35.6 °F 100% 30.14 in 0.2 mi SSE 5.8 mph - N/A Fog Fog
2:35 AM 33.8 °F - 33.8 °F 100% 30.14 in 0.2 mi Calm Calm - N/A Fog Fog
2:55 AM 33.8 °F 29.6 °F 33.8 °F 100% 30.14 in 0.5 mi SSW 4.6 mph - N/A Fog Fog
3:15 AM 32.0 °F 28.7 °F 32.0 °F 100% 30.14 in 0.8 mi South 3.5 mph - N/A   Mist
3:35 AM 33.8 °F 30.8 °F 33.8 °F 100% 30.14 in 0.2 mi South 3.5 mph - N/A Fog Fog
3:55 AM 32.0 °F - 32.0 °F 100% 30.14 in 0.2 mi Calm Calm - N/A Fog Fog
5:15 AM 33.8 °F 27.7 °F 33.8 °F 100% 30.14 in 1.0 mi SW 6.9 mph - N/A   Scattered Clouds
5:45 AM 35.6 °F 29.9 °F 35.6 °F 100% 30.14 in 0.2 mi WSW 6.9 mph - N/A Fog Fog
6:45 AM 33.8 °F 29.6 °F 33.8 °F 100% 30.14 in 0.2 mi SSW 4.6 mph - N/A Fog Fog
7:45 AM 33.8 °F 28.6 °F 33.8 °F 100% 30.14 in 0.2 mi South 5.8 mph - N/A Fog Fog
8:20 AM 33.8 °F 28.6 °F 33.8 °F 100% 30.14 in 0.5 mi South 5.8 mph - N/A Fog Fog
8:45 AM 35.6 °F 29.9 °F 35.6 °F 100% 30.14 in 1.0 mi SSE 6.9 mph - N/A   Scattered Clouds
9:45 AM 39.2 °F 33.0 °F 39.2 °F 100% 30.12 in 5.0 mi South 9.2 mph - N/A   Scattered Clouds
10:45 AM 48.2 °F - 42.8 °F 82% 30.10 in 7.0 mi South 11.5 mph - N/A   Scattered Clouds
11:45 AM 53.6 °F - 42.8 °F 67% 30.06 in 7.0 mi South 13.8 mph - N/A   Mostly Cloudy
12:45 PM 55.4 °F - 39.2 °F 54% 30.04 in 10.0 mi South 16.1 mph - N/A   Mostly Cloudy
1:45 PM 55.4 °F - 39.2 °F 54% 30.01 in 10.0 mi SSW 17.3 mph 23.0 mph N/A   Mostly Cloudy
2:45 PM 53.6 °F - 42.8 °F 67% 29.99 in 10.0 mi South 12.7 mph 20.7 mph N/A   Mostly Cloudy
3:45 PM 53.6 °F - 41.0 °F 62% 29.97 in 10.0 mi South 15.0 mph 19.6 mph N/A   Mostly Cloudy
4:45 PM 51.8 °F - 39.2 °F 62% 29.98 in 10.0 mi South 11.5 mph - N/A   Mostly Cloudy
5:45 PM 48.2 °F - 42.8 °F 82% 29.98 in 10.0 mi SSW 11.5 mph - N/A   Scattered Clouds
6:45 PM 48.2 °F - 42.8 °F 82% 29.97 in 10.0 mi SSW 12.7 mph - N/A   Scattered Clouds
7:45 PM 48.2 °F - 42.8 °F 82% 29.96 in 10.0 mi SSW 16.1 mph - N/A   Scattered Clouds
8:45 PM 48.2 °F - 42.8 °F 82% 29.96 in 10.0 mi SW 15.0 mph - N/A   Scattered Clouds
9:45 PM 48.2 °F - 42.8 °F 82% 29.96 in 10.0 mi SSW 17.3 mph 23.0 mph N/A   Scattered Clouds
9:55 PM 46.4 °F 40.1 °F 41.0 °F 81% 29.95 in 10.0 mi SSW 15.0 mph - N/A   Clear
10:15 PM 46.4 °F 39.2 °F 42.8 °F 87% 29.95 in 10.0 mi SSW 18.4 mph 23.0 mph N/A   Clear
10:45 PM 46.4 °F 39.5 °F 42.8 °F 87% 29.95 in 10.0 mi SSW 17.3 mph 23.0 mph N/A   Scattered Clouds
10:55 PM 44.6 °F 38.4 °F 42.8 °F 93% 29.95 in 10.0 mi SSW 12.7 mph - N/A   Clear
11:35 PM 44.6 °F 37.8 °F 42.8 °F 93% 29.95 in 7.0 mi SSW 15.0 mph - N/A   Clear
11:55 PM 44.6 °F 37.4 °F 42.8 °F 93% 29.95 in 7.0 mi SSW 16.1 mph - N/A   Clear